Weather in Surat

India     21°11′46″N   72°49′20″E
temp.,
°C
wind,
m/s
gust,
m/s
humid.,
%
clouds,
%
prec.,
mm/h
press.,
hPa
HPBL,
m
2 march, tue
tue223:30+24nnw56370 0.0 1014109
02:30+22nne45350 0.0 101380
05:30+19ne34240 0.0 101354
08:30+23nne34190 0.0 1016155
11:30+33n44110 0.0 1015710
14:30+34nw55110 0.0 1012694
17:30+33nnw4580 0.0 1010437
20:30+26nnw22120 0.0 101329
3 march, wed
wed323:30+23wnw45410 0.0 101370
02:30+21ne33380 0.0 101242
05:30+19ne34240 0.0 101248
08:30+23nne47170 0.0 1014245
11:30+34n4590 0.0 1013770
14:30+36nw55100 0.0 1010807
17:30+34nnw4690 0.0 1009434
20:30+29nnw34120 0.0 101140
4 march, thu
thu423:30+24w34380 0.0 101139
02:30+22nne23420 0.0 101029
05:30+20nne33280 0.0 101037
08:30+25nne35150 0.0 1013169
11:30+34n5690 0.0 1013817
14:30+37nw54100 0.0 10091168
17:30+35nnw34120 0.0 1008603
20:30+27ese11170 0.0 101024
5 march, fri
fri523:30+25wnw45360 0.0 101175
02:30+23n12410 0.0 101028
05:30+23nne34420 0.0 101048
08:30+26nne35240 0.0 1013175
11:30+36nne35120 0.0 1013974
14:30+39nnw55100 0.0 10092346
17:30+35nw68130 0.0 1008411
20:30+29nw34210 0.0 101039
6 march, sat
sat623:30+25w23340 0.0 101132
02:30+24nw22370 0.0 101027
05:30+22e11420 0.0 101024
08:30+27nnw23330 0.0 1013184
11:30+35nnw12170 0.0 1013878
14:30+36w43150 0.0 10091117
17:30+33sw34200 0.0 1008252
20:30+25wsw59530 0.0 1010156